| time (UTC) | temp C | wind direction | speed KPH | gust KPH | rain 1hr cm | rain 24hr cm | rain mn cm | humidity % | barometer mb |
| 20260507220047 | 14 | 360 | 4.8 | 8.0 | 0.00 | 0.00 | 0.03 | 63 | 1012.6 |
| 20260507215047 | 12 | 315 | 3.2 | 4.8 | 0.00 | 0.00 | 0.03 | 66 | 1012.6 |
| 20260507214047 | 13 | 270 | 1.6 | 3.2 | 0.00 | 0.00 | 0.03 | 67 | 1012.6 |
| 20260507213047 | 13 | 338 | 3.2 | 3.2 | 0.00 | 0.00 | 0.03 | 63 | 1012.6 |
| 20260507212047 | 13 | 338 | 4.8 | 4.8 | 0.00 | 0.00 | 0.03 | 64 | 1012.6 |
| 20260507211047 | 14 | 338 | 3.2 | 3.2 | 0.00 | 0.00 | 0.03 | 63 | 1012.6 |
| 20260507210047 | 14 | 248 | 4.8 | 6.4 | 0.00 | 0.00 | 0.03 | 57 | 1012.6 |
| 20260507205047 | 16 | 360 | 4.8 | 6.4 | 0.00 | 0.00 | 0.03 | 54 | 1012.6 |
| 20260507204047 | 15 | 225 | 4.8 | 6.4 | 0.00 | 0.00 | 0.03 | 64 | 1012.6 |
| 20260507203049 | 15 | 338 | 4.8 | 6.4 | 0.00 | 0.00 | 0.03 | 60 | 1012.6 |
| 20260507202047 | 15 | 360 | 3.2 | 4.8 | 0.00 | 0.00 | 0.03 | 54 | 1012.6 |
| 20260507201047 | 15 | 338 | 4.8 | 6.4 | 0.00 | 0.00 | 0.03 | 56 | 1012.6 |
| 20260507200047 | 14 | 315 | 4.8 | 6.4 | 0.00 | 0.00 | 0.03 | 62 | 1012.6 |
| 20260507195047 | 15 | 293 | 4.8 | 6.4 | 0.00 | 0.00 | 0.03 | 59 | 1012.9 |
| 20260507194047 | 15 | 135 | 4.8 | 4.8 | 0.00 | 0.00 | 0.03 | 63 | 1012.9 |
| 20260507193047 | 14 | 113 | 4.8 | 4.8 | 0.00 | 0.00 | 0.03 | 61 | 1012.9 |
| 20260507192047 | 16 | 158 | 1.6 | 3.2 | 0.00 | 0.00 | 0.03 | 58 | 1012.9 |
| 20260507191047 | 17 | 45 | 1.6 | 3.2 | 0.00 | 0.00 | 0.03 | 53 | 1013.2 |
| 20260507190046 | 17 | 45 | 1.6 | 3.2 | 0.00 | 0.00 | 0.03 | 52 | 1013.6 |
| 20260507185049 | 15 | 360 | 4.8 | 6.4 | 0.00 | 0.00 | 0.03 | 57 | 1013.2 |
| 20260507184047 | 14 | 68 | 1.6 | 3.2 | 0.00 | 0.00 | 0.03 | 60 | 1013.2 |
| 20260507183047 | 14 | 225 | 3.2 | 4.8 | 0.00 | 0.00 | 0.03 | 60 | 1013.2 |
| 20260507182049 | 13 | 135 | 3.2 | 4.8 | 0.00 | 0.00 | 0.03 | 69 | 1013.6 |
| 20260507181047 | 13 | 113 | 3.2 | 3.2 | 0.00 | 0.00 | 0.03 | 62 | 1013.6 |
| 20260507180046 | 14 | 23 | 1.6 | 3.2 | 0.00 | 0.00 | 0.03 | 63 | 1013.6 |
| 20260507175047 | 12 | 315 | 3.2 | 3.2 | 0.00 | 0.00 | 0.03 | 69 | 1013.6 |
| 20260507174047 | 11 | 203 | 3.2 | 3.2 | 0.00 | 0.00 | 0.03 | 74 | 1013.9 |
| 20260507173047 | 11 | 135 | 1.6 | 3.2 | 0.00 | 0.00 | 0.03 | 75 | 1013.9 |
| 20260507172049 | 12 | 203 | 0.0 | 1.6 | 0.00 | 0.00 | 0.03 | 73 | 1014.3 |
| 20260507171046 | 11 | 113 | 1.6 | 3.2 | 0.00 | 0.00 | 0.03 | 68 | 1014.3 |
| 20260507170049 | 12 | 23 | 3.2 | 4.8 | 0.00 | 0.00 | 0.03 | 65 | 1014.3 |
| 20260507165047 | 12 | 90 | 1.6 | 3.2 | 0.00 | 0.00 | 0.03 | 63 | 1014.3 |
| 20260507164047 | 11 | 113 | 0.0 | 3.2 | 0.00 | 0.00 | 0.03 | 69 | 1014.6 |
| 20260507163049 | 12 | 135 | 3.2 | 3.2 | 0.00 | 0.00 | 0.03 | 65 | 1014.6 |
| 20260507162047 | 11 | 135 | 0.0 | 0.0 | 0.00 | 0.00 | 0.03 | 67 | 1014.6 |
| 20260507161048 | 11 | 293 | 0.0 | 1.6 | 0.00 | 0.00 | 0.03 | 69 | 1014.9 |
| 20260507160048 | 11 | 68 | 1.6 | 3.2 | 0.00 | 0.00 | 0.03 | 68 | 1015.3 |
| 20260507155047 | 10 | 23 | 1.6 | 3.2 | 0.00 | 0.00 | 0.03 | 74 | 1015.3 |
| 20260507154047 | 9 | 68 | 1.6 | 3.2 | 0.00 | 0.00 | 0.03 | 75 | 1015.3 |
| 20260507153050 | 10 | 68 | 3.2 | 3.2 | 0.00 | 0.00 | 0.03 | 75 | 1014.9 |
| 20260507152050 | 9 | 293 | 3.2 | 4.8 | 0.00 | 0.00 | 0.03 | 78 | 1014.9 |
| 20260507151047 | 8 | 45 | 0.0 | 1.6 | 0.00 | 0.00 | 0.03 | 83 | 1015.3 |
| 20260507150049 | 7 | 45 | 1.6 | 3.2 | 0.00 | 0.00 | 0.03 | 85 | 1015.3 |
| 20260507145047 | 7 | 293 | 3.2 | 4.8 | 0.00 | 0.00 | 0.03 | 87 | 1015.3 |
| 20260507144047 | 7 | 90 | 1.6 | 3.2 | 0.00 | 0.00 | 0.03 | 91 | 1015.3 |
| 20260507143050 | 7 | 23 | 1.6 | 3.2 | 0.00 | 0.00 | 0.03 | 92 | 1015.6 |
| 20260507142049 | 7 | 45 | 1.6 | 3.2 | 0.00 | 0.00 | 0.03 | 93 | 1015.6 |
| 20260507141047 | 7 | 45 | 1.6 | 3.2 | 0.00 | 0.00 | 0.03 | 94 | 1015.6 |
| 20260507140047 | 6 | 113 | 1.6 | 1.6 | 0.00 | 0.00 | 0.03 | 96 | 1015.6 |
| 20260507135047 | 6 | 45 | 3.2 | 4.8 | 0.00 | 0.00 | 0.03 | 96 | 1016.0 |
| 20260507134047 | 6 | 90 | 3.2 | 4.8 | 0.00 | 0.00 | 0.03 | 97 | 1016.0 |
| 20260507133048 | 6 | 360 | 3.2 | 3.2 | 0.00 | 0.00 | 0.03 | 97 | 1015.6 |
| 20260507132048 | 6 | 135 | 3.2 | 3.2 | 0.00 | 0.00 | 0.03 | 96 | 1016.0 |
| 20260507131047 | 6 | 23 | 3.2 | 4.8 | 0.00 | 0.00 | 0.03 | 96 | 1016.0 |
| 20260507130047 | 6 | 23 | 1.6 | 1.6 | 0.00 | 0.00 | 0.03 | 95 | 1016.0 |
| 20260507125047 | 6 | 68 | 1.6 | 3.2 | 0.00 | 0.00 | 0.03 | 95 | 1016.0 |
| 20260507124047 | 7 | 45 | 3.2 | 3.2 | 0.00 | 0.00 | 0.03 | 94 | 1016.0 |
| 20260507123047 | 7 | 68 | 0.0 | 1.6 | 0.00 | 0.00 | 0.03 | 94 | 1016.0 |
| 20260507122047 | 6 | 360 | 3.2 | 4.8 | 0.00 | 0.00 | 0.03 | 94 | 1015.6 |
| 20260507121047 | 6 | 23 | 3.2 | 4.8 | 0.00 | 0.00 | 0.03 | 94 | 1015.6 |
| 20260507120047 | 6 | 23 | 4.8 | 4.8 | 0.00 | 0.00 | 0.03 | 94 | 1015.6 |
| 20260507115047 | 6 | 23 | 3.2 | 3.2 | 0.00 | 0.00 | 0.03 | 94 | 1015.6 |
| 20260507114047 | 6 | 45 | 1.6 | 3.2 | 0.00 | 0.00 | 0.03 | 94 | 1015.6 |
| 20260507113047 | 6 | 45 | 1.6 | 3.2 | 0.00 | 0.00 | 0.03 | 94 | 1015.6 |
| 20260507112047 | 6 | 23 | 3.2 | 3.2 | 0.00 | 0.00 | 0.03 | 94 | 1015.6 |
| 20260507111049 | 6 | 23 | 3.2 | 3.2 | 0.00 | 0.00 | 0.03 | 94 | 1015.3 |
| 20260507110052 | 6 | 23 | 4.8 | 6.4 | 0.00 | 0.00 | 0.03 | 94 | 1014.9 |
| 20260507105049 | 6 | 45 | 1.6 | 3.2 | 0.00 | 0.00 | 0.03 | 95 | 1015.3 |
| 20260507104049 | 6 | 68 | 1.6 | 3.2 | 0.00 | 0.00 | 0.03 | 96 | 1015.3 |
| 20260507103048 | 6 | 45 | 1.6 | 3.2 | 0.00 | 0.00 | 0.03 | 96 | 1014.9 |
| 20260507102047 | 6 | 45 | 1.6 | 3.2 | 0.00 | 0.00 | 0.03 | 96 | 1015.3 |
| 20260507101047 | 6 | 45 | 0.0 | 1.6 | 0.00 | 0.00 | 0.03 | 96 | 1015.3 |
| 20260507100047 | 6 | 23 | 3.2 | 4.8 | 0.00 | 0.00 | 0.03 | 96 | 1015.3 |
| 20260507095047 | 6 | 360 | 6.4 | 6.4 | 0.00 | 0.00 | 0.03 | 97 | 1014.9 |
| 20260507094049 | 6 | 23 | 4.8 | 4.8 | 0.00 | 0.00 | 0.03 | 97 | 1014.9 |
| 20260507093047 | 6 | 23 | 3.2 | 4.8 | 0.00 | 0.00 | 0.03 | 98 | 1014.9 |
| 20260507092048 | 6 | 360 | 4.8 | 8.0 | 0.00 | 0.00 | 0.03 | 98 | 1014.9 |
| 20260507091047 | 6 | 360 | 3.2 | 3.2 | 0.00 | 0.00 | 0.03 | 99 | 1015.3 |
| 20260507090048 | 6 | 23 | 4.8 | 6.4 | 0.00 | 0.00 | 0.03 | 99 | 1014.9 |
| 20260507085047 | 6 | 360 | 6.4 | 8.0 | 0.00 | 0.00 | 0.03 | 99 | 1014.6 |
| 20260507084047 | 6 | 45 | 4.8 | 6.4 | 0.00 | 0.00 | 0.03 | 99 | 1014.3 |
| 20260507083049 | 6 | 45 | 3.2 | 3.2 | 0.00 | 0.00 | 0.03 | 99 | 1014.6 |
| 20260507082047 | 6 | 23 | 3.2 | 3.2 | 0.00 | 0.00 | 0.03 | 99 | 1014.9 |
| 20260507081047 | 6 | 45 | 1.6 | 3.2 | 0.00 | 0.00 | 0.03 | 99 | 1015.3 |
| 20260507080050 | 7 | 68 | 3.2 | 3.2 | 0.00 | 0.00 | 0.03 | 99 | 1015.3 |
| 20260507075047 | 7 | 45 | 3.2 | 3.2 | 0.00 | 0.00 | 0.03 | 99 | 1015.3 |
| 20260507074050 | 7 | 45 | 1.6 | 3.2 | 0.00 | 0.00 | 0.03 | 99 | 1015.3 |
| 20260507073047 | 7 | 68 | 4.8 | 6.4 | 0.00 | 0.00 | 0.03 | 99 | 1014.9 |
| 20260507072047 | 7 | 23 | 3.2 | 3.2 | 0.00 | 0.00 | 0.03 | 99 | 1014.3 |
| 20260507071049 | 7 | 23 | 4.8 | 8.0 | 0.00 | 0.00 | 0.03 | 99 | 1014.6 |
| 20260507070047 | 7 | 45 | 4.8 | 4.8 | 0.00 | 0.00 | 0.03 | 99 | 1014.3 |
| 20260507065047 | 8 | 45 | 1.6 | 3.2 | 0.00 | 0.00 | 0.03 | 99 | 1014.6 |
| 20260507064047 | 8 | 23 | 3.2 | 4.8 | 0.00 | 0.00 | 0.03 | 99 | 1014.9 |
| 20260507063047 | 8 | 23 | 3.2 | 6.4 | 0.00 | 0.00 | 0.03 | 99 | 1014.9 |
| 20260507062047 | 8 | 68 | 3.2 | 3.2 | 0.00 | 0.00 | 0.03 | 99 | 1014.9 |
| 20260507061047 | 9 | 68 | 0.0 | 1.6 | 0.00 | 0.00 | 0.03 | 99 | 1014.9 |
| 20260507060047 | 9 | 23 | 4.8 | 4.8 | 0.00 | 0.00 | 0.03 | 99 | 1015.3 |
| 20260507055047 | 9 | 45 | 1.6 | 3.2 | 0.00 | 0.00 | 0.03 | 99 | 1015.3 |
| 20260507054047 | 9 | 68 | 0.0 | 3.2 | 0.00 | 0.00 | 0.03 | 99 | 1015.3 |
| 20260507053047 | 10 | 45 | 3.2 | 4.8 | 0.00 | 0.00 | 0.03 | 99 | 1015.3 |
| 20260507052046 | 10 | 45 | 3.2 | 4.8 | 0.00 | 0.00 | 0.03 | 99 | 1014.9 |
| 20260507051047 | 10 | 23 | 4.8 | 8.0 | 0.00 | 0.00 | 0.03 | 99 | 1014.9 |
| 20260507050047 | 10 | 23 | 4.8 | 8.0 | 0.00 | 0.00 | 0.03 | 99 | 1014.9 |
| 20260507045047 | 11 | 360 | 3.2 | 4.8 | 0.00 | 0.00 | 0.03 | 99 | 1014.6 |
| 20260507044048 | 11 | 360 | 1.6 | 3.2 | 0.00 | 0.00 | 0.03 | 99 | 1014.9 |
| 20260507043049 | 10 | 90 | 0.0 | 1.6 | 0.00 | 0.00 | 0.03 | 99 | 1014.6 |
| 20260507042046 | 11 | 180 | 3.2 | 4.8 | 0.00 | 0.00 | 0.00 | 99 | 1014.3 |
| 20260507041047 | 11 | 90 | 4.8 | 6.4 | 0.00 | 0.00 | 0.00 | 98 | 1014.6 |
| 20260507040048 | 11 | 158 | 1.6 | 3.2 | 0.00 | 0.00 | 0.00 | 98 | 1014.9 |
| 20260507035049 | 11 | 270 | 0.0 | 1.6 | 0.00 | 0.00 | 1.68 | 98 | 1015.3 |
| 20260507034047 | 11 | 360 | 4.8 | 8.0 | 0.00 | 0.00 | 1.60 | 98 | 1015.3 |
| 20260507033047 | 12 | 68 | 0.0 | 1.6 | 0.00 | 0.00 | 1.57 | 98 | 1015.3 |
| 20260507032047 | 12 | 113 | 1.6 | 3.2 | 0.00 | 0.00 | 1.57 | 97 | 1015.3 |
| 20260507031047 | 12 | 90 | 1.6 | 3.2 | 0.00 | 0.00 | 1.55 | 97 | 1014.9 |
| 20260507030047 | 12 | 360 | 0.0 | 0.0 | 0.00 | 0.00 | 1.52 | 97 | 1015.3 |
| 20260507025047 | 12 | 360 | 0.0 | 0.0 | 0.00 | 0.00 | 1.50 | 97 | 1015.3 |
| 20260507024047 | 13 | 360 | 3.2 | 3.2 | 0.00 | 0.00 | 1.42 | 95 | 1015.3 |
| 20260507023047 | 13 | 23 | 3.2 | 3.2 | 0.00 | 0.00 | 1.42 | 95 | 1014.9 |
| 20260507022047 | 13 | 90 | 0.0 | 0.0 | 0.00 | 0.00 | 1.42 | 96 | 1014.9 |
| 20260507021048 | 13 | 135 | 1.6 | 3.2 | 0.00 | 0.00 | 1.42 | 95 | 1014.6 |
| 20260507020047 | 13 | 338 | 3.2 | 4.8 | 0.00 | 0.00 | 1.42 | 93 | 1014.9 |
| 20260507015047 | 12 | 45 | 4.8 | 4.8 | 0.00 | 0.00 | 1.42 | 96 | 1014.9 |
| 20260507014047 | 12 | 23 | 1.6 | 3.2 | 0.00 | 0.00 | 1.42 | 97 | 1015.3 |
| 20260507013047 | 12 | 113 | 1.6 | 3.2 | 0.00 | 0.00 | 1.42 | 97 | 1014.6 |
| 20260507012047 | 12 | 90 | 1.6 | 3.2 | 0.00 | 0.00 | 1.42 | 96 | 1014.6 |
| 20260507011047 | 13 | 158 | 3.2 | 3.2 | 0.00 | 0.00 | 1.42 | 95 | 1014.3 |
| 20260507010047 | 13 | 23 | 1.6 | 3.2 | 0.00 | 0.00 | 1.40 | 93 | 1014.9 |
| 20260507005047 | 13 | 360 | 4.8 | 6.4 | 0.00 | 0.00 | 1.40 | 92 | 1014.9 |
| 20260507004048 | 13 | 360 | 4.8 | 8.0 | 0.00 | 0.00 | 1.40 | 93 | 1014.9 |
| 20260507003047 | 13 | 338 | 6.4 | 8.0 | 0.00 | 0.00 | 1.40 | 93 | 1014.9 |
| 20260507002048 | 13 | 360 | 6.4 | 8.0 | 0.00 | 0.00 | 1.40 | 94 | 1014.9 |
| 20260507001047 | 13 | 338 | 8.0 | 9.7 | 0.00 | 0.00 | 1.40 | 93 | 1014.9 |
| 20260507000047 | 14 | 23 | 6.4 | 8.0 | 0.00 | 0.00 | 1.40 | 93 | 1014.3 |
| 20260506235046 | 15 | 45 | 4.8 | 8.0 | 0.00 | 0.00 | 1.40 | 92 | 1014.3 |
| 20260506234047 | 15 | 360 | 4.8 | 8.0 | 0.00 | 0.00 | 1.40 | 91 | 1014.6 |
| 20260506233047 | 15 | 23 | 6.4 | 8.0 | 0.00 | 0.00 | 1.40 | 91 | 1014.3 |
| 20260506232046 | 15 | 23 | 3.2 | 4.8 | 0.00 | 0.00 | 1.40 | 93 | 1014.3 |
| 20260506231047 | 15 | 23 | 3.2 | 3.2 | 0.00 | 0.00 | 1.40 | 92 | 1014.3 |
| 20260506230048 | 16 | 338 | 4.8 | 6.4 | 0.00 | 0.00 | 1.40 | 90 | 1014.3 |
| 20260506225047 | 16 | 338 | 3.2 | 4.8 | 0.00 | 0.00 | 1.40 | 90 | 1013.9 |
| 20260506224047 | 16 | 360 | 3.2 | 3.2 | 0.00 | 0.00 | 1.40 | 90 | 1014.3 |
| 20260506223047 | 17 | 315 | 3.2 | 3.2 | 0.00 | 0.00 | 1.40 | 88 | 1013.9 |
| 20260506222047 | 17 | 360 | 6.4 | 8.0 | 0.00 | 0.00 | 1.40 | 86 | 1013.9 |
| 20260506221047 | 17 | 23 | 6.4 | 8.0 | 0.00 | 0.00 | 1.40 | 86 | 1013.9 |